Location: ?????
(32.7281°N, 34.9563°E)
Time: 18:19:05
(UTC+00:00)

Cosmos 1709 Rocket - Pass Details

Date: 29 October 2020
Orbit: 949 x 1001 km, 82.9° (Epoch: 30 November)

Event Time Altitude Azimuth Distance (km) Brightness Sun altitude
Rises 16:56:03 0° 353° (N) 3,727 7.1 -26.6°
Reaches altitude 10° 16:58:35 10° 352° (N) 2,776 6.5 -27.2°
Maximum altitude 17:04:59 83° 266° (W) 1,011 4.0 -28.5°
Drops below altitude 10° 17:11:19 10° 179° (S) 2,752 6.3 -29.9°
Sets 17:13:49 0° 178° (S) 3,693 7.0 -30.4°
